,,Stat6,,Stat2,,Stat8,,Stat9,,Stat10,,Wind1,,Wind1,
time,status,PA1M_AVG,status,PR1M_SUM,status,RH1M_AVG,status,SR1M_AVG,status,TA1M_AVG,status,W1dAve1m,status,W1sAve1m,
2007-04-20, 00:00:00,VALID,919.388,VALID,0,VALID,100,VALID,-0.0339617,VALID,19.6961,VALID,133,VALID,1.09966,
2007-04-20, 00:01:00,VALID,919.382,VALID,0,VALID,100,VALID,-0.0509425,VALID,19.7253,VALID,134,VALID,1.0261,
2007-04-20, 00:02:00,VALID,919.372,VALID,0,VALID,100,VALID,-0.0509425,VALID,19.7452,VALID,136,VALID,1.1795,
2007-04-20, 00:03:00,VALID,919.364,VALID,0,VALID,100,VALID,0,VALID,19.7482,VALID,136,VALID,0.809009,
2007-04-20, 00:04:00,VALID,919.356,VALID,0,VALID,100,VALID,-0.0169808,VALID,19.7547,VALID,128,VALID,0.847656,
2007-04-20, 00:05:00,VALID,919.339,VALID,0,VALID,100,VALID,-0.0509425,VALID,19.7485,VALID,125,VALID,0.834077,
2007-04-20, 00:06:00,VALID,919.35,VALID,0,VALID,100,VALID,-0.0679233,VALID,19.7323,VALID,128,VALID,1.11646,
2007-04-20, 00:07:00,VALID,919.336,VALID,0,VALID,100,VALID,-0.0509425,VALID,19.709,VALID,130,VALID,1.38972,
2007-04-20, 00:08:00,VALID,919.334,VALID,0,VALID,100,VALID,-0.0339617,VALID,19.6704,VALID,124,VALID,1.36757,
2007-04-20, 00:09:00,VALID,919.326,VALID,0,VALID,100,VALID,-0.0509425,VALID,19.6474,VALID,132,VALID,0.805596,
2007-04-20, 00:10:00,VALID,919.318,VALID,0,VALID,100,VALID,-0.0509425,VALID,19.6179,VALID,149,VALID,1.26509,
2007-04-20, 00:11:00,VALID,919.283,VALID,0,VALID,100,VALID,-0.0509425,VALID,19.5568,VALID,146,VALID,1.46708,
2007-04-20, 00:12:00,VALID,919.285,VALID,0,VALID,100,VALID,-0.0169808,VALID,19.4854,VALID,142,VALID,1.3045,
2007-04-20, 00:13:00,VALID,919.275,VALID,0,VALID,100,VALID,-0.0339617,VALID,19.4532,VALID,138,VALID,1.22951,
2007-04-20, 00:14:00,VALID,919.271,VALID,0,VALID,100,VALID,-0.0509425,VALID,19.427,VALID,145,VALID,1.44736,
2007-04-20, 00:15:00,VALID,919.249,VALID,0,VALID,100,VALID,-0.0679233,VALID,19.3883,VALID,143,VALID,1.72954,
2007-04-20, 00:16:00,VALID,919.244,VALID,0,VALID,100,VALID,-0.0339617,VALID,19.3784,VALID,134,VALID,1.72061,
2007-04-20, 00:17:00,VALID,919.227,VALID,0,VALID,100,VALID,-0.0509425,VALID,19.3754,VALID,152,VALID,1.48153,
2007-04-20, 00:18:00,VALID,919.222,VALID,0,VALID,100,VALID,-0.0509425,VALID,19.3424,VALID,149,VALID,1.25595,
2007-04-20, 00:19:00,VALID,919.212,VALID,0,VALID,100,VALID,-0.0339617,VALID,19.3329,VALID,150,VALID,1.27535,
2007-04-20, 00:20:00,VALID,919.203,VALID,0,VALID,100,VALID,-0.0169808,VALID,19.3334,VALID,152,VALID,1.11478,
2007-04-20, 00:21:00,VALID,919.198,VALID,0,VALID,100,VALID,-0.0849042,VALID,19.31,VALID,151,VALID,1.38572,
2007-04-20, 00:22:00,VALID,919.187,VALID,0,VALID,100,VALID,-0.0679233,VALID,19.3075,VALID,148,VALID,1.34712,
2007-04-20, 00:23:00,VALID,919.176,VALID,0,VALID,100,VALID,0,VALID,19.304,VALID,143,VALID,1.39535,
2007-04-20, 00:24:00,VALID,919.168,VALID,0,VALID,100,VALID,-0.0169808,VALID,19.3167,VALID,150,VALID,1.34902,
2007-04-20, 00:25:00,VALID,919.159,VALID,0,VALID,100,VALID,-0.0169808,VALID,19.3327,VALID,151,VALID,1.06232,
2007-04-20, 00:26:00,VALID,919.164,VALID,0,VALID,100,VALID,-0.0509425,VALID,19.3589,VALID,148,VALID,1.15492,
2007-04-20, 00:27:00,VALID,919.16,VALID,0,VALID,100,VALID,-0.0339617,VALID,19.3619,VALID,148,VALID,1.20437,
2007-04-20, 00:28:00,VALID,919.155,VALID,0,VALID,100,VALID,0,VALID,19.3814,VALID,145,VALID,1.19531,
2007-04-20, 00:29:00,VALID,919.148,VALID,0,VALID,100,VALID,-0.0169808,VALID,19.3978,VALID,146,VALID,1.15425,
2007-04-20, 00:30:00,VALID,919.135,VALID,0,VALID,100,VALID,-0.0339617,VALID,19.4298,VALID,156,VALID,1.35756,
2007-04-20, 00:31:00,VALID,919.119,VALID,0,VALID,100,VALID,-0.0169808,VALID,19.4655,VALID,158,VALID,1.00291,
2007-04-20, 00:32:00,VALID,919.104,VALID,0,VALID,100,VALID,-0.0339617,VALID,19.4854,VALID,152,VALID,1.09013,
2007-04-20, 00:33:00,VALID,919.107,VALID,0,VALID,100,VALID,0,VALID,19.5141,VALID,160,VALID,1.22028,
2007-04-20, 00:34:00,VALID,919.096,VALID,0,VALID,100,VALID,-0.0339617,VALID,19.5338,VALID,159,VALID,1.12424,
2007-04-20, 00:35:00,VALID,919.075,VALID,0,VALID,100,VALID,0,VALID,19.5433,VALID,150,VALID,1.11024,
2007-04-20, 00:36:00,VALID,919.073,VALID,0,VALID,100,VALID,-0.0339617,VALID,19.5568,VALID,147,VALID,0.964558,
2007-04-20, 00:37:00,VALID,919.076,VALID,0,VALID,100,VALID,-0.0509425,VALID,19.5628,VALID,154,VALID,1.27235,
2007-04-20, 00:38:00,VALID,919.067,VALID,0,VALID,100,VALID,-0.0509425,VALID,19.5663,VALID,166,VALID,1.2247,
2007-04-20, 00:39:00,VALID,919.065,VALID,0,VALID,100,VALID,-0.0339617,VALID,19.583,VALID,161,VALID,1.15454,
2007-04-20, 00:40:00,VALID,919.063,VALID,0,VALID,100,VALID,-0.0339617,VALID,19.5665,VALID,163,VALID,1.2125,
2007-04-20, 00:41:00,VALID,919.043,VALID,0,VALID,100,VALID,-0.0339617,VALID,19.5501,VALID,168,VALID,1.59952,
2007-04-20, 00:42:00,VALID,919.045,VALID,0,VALID,100,VALID,0,VALID,19.5373,VALID,172,VALID,2.17733,
2007-04-20, 00:43:00,VALID,919.033,VALID,0,VALID,100,VALID,-0.0169808,VALID,19.5046,VALID,155,VALID,1.71818,
2007-04-20, 00:44:00,VALID,919.01,VALID,0,VALID,100,VALID,-0.0339617,VALID,19.5016,VALID,167,VALID,1.45859,
2007-04-20, 00:45:00,VALID,919.004,VALID,0,VALID,100,VALID,0,VALID,19.4784,VALID,168,VALID,1.49314,
2007-04-20, 00:46:00,VALID,918.981,VALID,0,VALID,100,VALID,-0.0169808,VALID,19.4525,VALID,173,VALID,1.62604,
2007-04-20, 00:47:00,VALID,918.953,VALID,0,VALID,100,VALID,0,VALID,19.4333,VALID,172,VALID,1.76209,
2007-04-20, 00:48:00,VALID,918.951,VALID,0,VALID,100,VALID,0,VALID,19.417,VALID,169,VALID,1.75558,
2007-04-20, 00:49:00,VALID,918.924,VALID,0,VALID,100,VALID,0,VALID,19.4168,VALID,172,VALID,1.65843,
2007-04-20, 00:50:00,VALID,918.905,VALID,0,VALID,100,VALID,0.0169808,VALID,19.4203,VALID,170,VALID,1.15998,
2007-04-20, 00:51:00,VALID,918.881,VALID,0,VALID,100,VALID,0,VALID,19.4101,VALID,168,VALID,1.54978,
2007-04-20, 00:52:00,VALID,918.864,VALID,0,VALID,100,VALID,0,VALID,19.3943,VALID,161,VALID,1.36119,
2007-04-20, 00:53:00,VALID,918.862,VALID,0,VALID,100,VALID,-0.0169808,VALID,19.3846,VALID,173,VALID,1.49891,
2007-04-20, 00:54:00,VALID,918.847,VALID,0,VALID,100,VALID,-0.0169808,VALID,19.3644,VALID,171,VALID,1.69264,
2007-04-20, 00:55:00,VALID,918.84,VALID,0,VALID,100,VALID,0,VALID,19.3517,VALID,169,VALID,0.909702,
2007-04-20, 00:56:00,VALID,918.824,VALID,0,VALID,100,VALID,0,VALID,19.3419,VALID,171,VALID,1.65892,
2007-04-20, 00:57:00,VALID,918.813,VALID,0,VALID,100,VALID,0,VALID,19.3457,VALID,173,VALID,1.35897,
2007-04-20, 00:58:00,VALID,918.793,VALID,0,VALID,100,VALID,-0.0169808,VALID,19.3294,VALID,175,VALID,1.43821,
2007-04-20, 00:59:00,VALID,918.782,VALID,0,VALID,100,VALID,-0.118866,VALID,19.3466,VALID,167,VALID,1.79857,
2007-04-20, 01:00:00,VALID,918.77,VALID,0,VALID,100,VALID,-0.101885,VALID,19.3501,VALID,172,VALID,1.17208,
2007-04-20, 01:01:00,VALID,918.755,VALID,0,VALID,100,VALID,-0.101885,VALID,19.3466,VALID,178,VALID,1.08809,
2007-04-20, 01:02:00,VALID,918.745,VALID,0,VALID,100,VALID,-0.101885,VALID,19.3728,VALID,182,VALID,0.995916,
2007-04-20, 01:03:00,VALID,918.737,VALID,0,VALID,100,VALID,-0.0849042,VALID,19.3724,VALID,179,VALID,1.09089,
2007-04-20, 01:04:00,VALID,918.727,VALID,0,VALID,100,VALID,-0.101885,VALID,19.3758,VALID,180,VALID,1.56936,
2007-04-20, 01:05:00,VALID,918.721,VALID,0,VALID,100,VALID,-0.101885,VALID,19.4023,VALID,173,VALID,1.56678,
2007-04-20, 01:06:00,VALID,918.717,VALID,0,VALID,100,VALID,-0.101885,VALID,19.4078,VALID,188,VALID,1.06555,
2007-04-20, 01:07:00,VALID,918.706,VALID,0,VALID,100,VALID,-0.101885,VALID,19.431,VALID,181,VALID,1.21912,
2007-04-20, 01:08:00,VALID,918.697,VALID,0,VALID,100,VALID,-0.101885,VALID,19.444,VALID,179,VALID,0.631037,
2007-04-20, 01:09:00,VALID,918.682,VALID,0,VALID,100,VALID,-0.0849042,VALID,19.4472,VALID,181,VALID,0.480755,
2007-04-20, 01:10:00,VALID,918.675,VALID,0,VALID,100,VALID,-0.101885,VALID,19.447,VALID,168,VALID,0.951637,
2007-04-20, 01:11:00,VALID,918.66,VALID,0,VALID,100,VALID,-0.101885,VALID,19.4602,VALID,161,VALID,0.932736,
2007-04-20, 01:12:00,VALID,918.643,VALID,0,VALID,100,VALID,-0.0679233,VALID,19.4537,VALID,168,VALID,1.08576,
2007-04-20, 01:13:00,VALID,918.637,VALID,0,VALID,100,VALID,-0.0849042,VALID,19.4574,VALID,168,VALID,1.11364,
2007-04-20, 01:14:00,VALID,918.619,VALID,0,VALID,100,VALID,-0.118866,VALID,19.4669,VALID,156,VALID,0.897321,
2007-04-20, 01:15:00,VALID,918.602,VALID,0,VALID,100,VALID,-0.101885,VALID,19.4829,VALID,140,VALID,0.832485,
2007-04-20, 01:16:00,VALID,918.594,VALID,0,VALID,100,VALID,-0.101885,VALID,19.4991,VALID,173,VALID,1.32031,
2007-04-20, 01:17:00,VALID,918.579,VALID,0,VALID,100,VALID,-0.101885,VALID,19.5091,VALID,155,VALID,1.44141,
2007-04-20, 01:18:00,VALID,918.555,VALID,0,VALID,100,VALID,-0.101885,VALID,19.5221,VALID,181,VALID,1.17773,
2007-04-20, 01:19:00,VALID,918.558,VALID,0,VALID,100,VALID,-0.101885,VALID,19.5186,VALID,176,VALID,1.34175,
2007-04-20, 01:20:00,VALID,918.537,VALID,0,VALID,100,VALID,-0.101885,VALID,19.5348,VALID,158,VALID,1.66629,
2007-04-20, 01:21:00,VALID,918.514,VALID,0,VALID,100,VALID,-0.0849042,VALID,19.554,VALID,166,VALID,1.46391,
2007-04-20, 01:22:00,VALID,918.508,VALID,0,VALID,100,VALID,-0.118866,VALID,19.554,VALID,180,VALID,1.14898,
2007-04-20, 01:23:00,VALID,918.499,VALID,0,VALID,100,VALID,-0.101885,VALID,19.5506,VALID,162,VALID,1.0558,
2007-04-20, 01:24:00,VALID,918.477,VALID,0,VALID,100,VALID,-0.101885,VALID,19.5578,VALID,162,VALID,1.25618,
2007-04-20, 01:25:00,VALID,918.477,VALID,0,VALID,100,VALID,-0.101885,VALID,19.5575,VALID,196,VALID,0.751488,
2007-04-20, 01:26:00,VALID,918.456,VALID,0,VALID,100,VALID,-0.0679233,VALID,19.5578,VALID,182,VALID,0.870793,
2007-04-20, 01:27:00,VALID,918.433,VALID,0,VALID,100,VALID,-0.101885,VALID,19.5575,VALID,185,VALID,0.327035,
2007-04-20, 01:28:00,VALID,918.434,VALID,0,VALID,100,VALID,-0.0849042,VALID,19.5538,VALID,180,VALID,0.792383,
2007-04-20, 01:29:00,VALID,918.422,VALID,0,VALID,100,VALID,-0.101885,VALID,19.5543,VALID,168,VALID,0.454649,
2007-04-20, 01:30:00,VALID,918.407,VALID,0,VALID,100,VALID,-0.118866,VALID,19.5438,VALID,152,VALID,1.06484,
2007-04-20, 01:31:00,VALID,918.39,VALID,0,VALID,100,VALID,-0.0679233,VALID,19.5406,VALID,147,VALID,1.31707,
2007-04-20, 01:32:00,VALID,918.362,VALID,0,VALID,100,VALID,-0.101885,VALID,19.5513,VALID,138,VALID,0.978423,
2007-04-20, 01:33:00,VALID,918.347,VALID,0,VALID,100,VALID,-0.118866,VALID,19.5471,VALID,116,VALID,0.889881,
2007-04-20, 01:34:00,VALID,918.321,VALID,0,VALID,100,VALID,-0.101885,VALID,19.5508,VALID,125,VALID,1.21441,
2007-04-20, 01:35:00,VALID,918.31,VALID,0,VALID,100,VALID,-0.0849042,VALID,19.5678,VALID,131,VALID,1.25539,
2007-04-20, 01:36:00,VALID,918.287,VALID,0,VALID,100,VALID,-0.101885,VALID,19.5678,VALID,120,VALID,1.00302,
2007-04-20, 01:37:00,VALID,918.265,VALID,0,VALID,100,VALID,-0.101885,VALID,19.5575,VALID,138,VALID,1.07273,
2007-04-20, 01:38:00,VALID,918.249,VALID,0,VALID,100,VALID,-0.135847,VALID,19.558,VALID,144,VALID,1.44258,
2007-04-20, 01:39:00,VALID,918.233,VALID,0,VALID,100,VALID,-0.118866,VALID,19.5446,VALID,131,VALID,1.04179,
2007-04-20, 01:40:00,VALID,918.225,VALID,0,VALID,100,VALID,-0.101885,VALID,19.5613,VALID,132,VALID,0.78457,
2007-04-20, 01:41:00,VALID,918.215,VALID,0,VALID,100,VALID,-0.101885,VALID,19.558,VALID,126,VALID,1.13605,
2007-04-20, 01:42:00,VALID,918.206,VALID,0,VALID,100,VALID,-0.118866,VALID,19.5421,VALID,115,VALID,0.925305,
2007-04-20, 01:43:00,VALID,918.204,VALID,0,VALID,100,VALID,-0.0849042,VALID,19.5321,VALID,121,VALID,1.23103,
2007-04-20, 01:44:00,VALID,918.205,VALID,0,VALID,100,VALID,-0.0169808,VALID,19.5109,VALID,120,VALID,0.773074,
2007-04-20, 01:45:00,VALID,918.194,VALID,0,VALID,100,VALID,-0.0339617,VALID,19.5141,VALID,106,VALID,0.724414,
2007-04-20, 01:46:00,VALID,918.187,VALID,0,VALID,100,VALID,0,VALID,19.4842,VALID,115,VALID,0.885121,
2007-04-20, 01:47:00,VALID,918.166,VALID,0,VALID,100,VALID,0.0169808,VALID,19.4682,VALID,90,VALID,1.05785,
2007-04-20, 01:48:00,VALID,918.163,VALID,0,VALID,100,VALID,0,VALID,19.4457,VALID,95,VALID,1.06414,
2007-04-20, 01:49:00,VALID,918.152,VALID,0,VALID,100,VALID,0.0169808,VALID,19.4161,VALID,107,VALID,1.02053,
2007-04-20, 01:50:00,VALID,918.152,VALID,0,VALID,100,VALID,0,VALID,19.4041,VALID,108,VALID,1.127,
2007-04-20, 01:51:00,VALID,918.143,VALID,0,VALID,100,VALID,-0.0169808,VALID,19.3911,VALID,115,VALID,1.63337,
2007-04-20, 01:52:00,VALID,918.131,VALID,0,VALID,100,VALID,0,VALID,19.3649,VALID,117,VALID,1.21243,
2007-04-20, 01:53:00,VALID,918.115,VALID,0,VALID,100,VALID,0,VALID,19.3519,VALID,116,VALID,0.918146,
2007-04-20, 01:54:00,VALID,918.1,VALID,0,VALID,100,VALID,0,VALID,19.3287,VALID,134,VALID,1.48828,
2007-04-20, 01:55:00,VALID,918.083,VALID,0,VALID,100,VALID,0.0339617,VALID,19.3025,VALID,136,VALID,1.46943,
2007-04-20, 01:56:00,VALID,918.055,VALID,0,VALID,100,VALID,0.0339617,VALID,19.289,VALID,136,VALID,1.3205,
2007-04-20, 01:57:00,VALID,918.046,VALID,0,VALID,100,VALID,0.0509425,VALID,19.2998,VALID,151,VALID,1.10472,
2007-04-20, 01:58:00,VALID,918.049,VALID,0,VALID,100,VALID,0.0509425,VALID,19.2835,VALID,153,VALID,1.56623,
2007-04-20, 01:59:00,VALID,918.028,VALID,0,VALID,100,VALID,0.0509425,VALID,19.2831,VALID,150,VALID,1.1559,
2007-04-20, 02:00:00,VALID,918.015,VALID,0,VALID,100,VALID,0.0509425,VALID,19.2733,VALID,152,VALID,1.49766,
2007-04-20, 02:01:00,VALID,918.008,VALID,0,VALID,100,VALID,0.0679233,VALID,19.2534,VALID,150,VALID,1.62538,
2007-04-20, 02:02:00,VALID,918.003,VALID,0,VALID,100,VALID,0,VALID,19.2673,VALID,155,VALID,1.37463,
2007-04-20, 02:03:00,VALID,918.01,VALID,0,VALID,100,VALID,0.0169808,VALID,19.2641,VALID,154,VALID,1.44364,
2007-04-20, 02:04:00,VALID,918.004,VALID,0,VALID,100,VALID,0.0339617,VALID,19.2576,VALID,149,VALID,1.5535,
2007-04-20, 02:05:00,VALID,917.988,VALID,0,VALID,100,VALID,0.0169808,VALID,19.2668,VALID,142,VALID,1.16424,
2007-04-20, 02:06:00,VALID,917.983,VALID,0,VALID,100,VALID,0,VALID,19.2736,VALID,130,VALID,1.25107,
2007-04-20, 02:07:00,VALID,917.961,VALID,0,VALID,100,VALID,0.0169808,VALID,19.2868,VALID,127,VALID,1.34514,
2007-04-20, 02:08:00,VALID,917.953,VALID,0,VALID,100,VALID,0.0339617,VALID,19.2928,VALID,128,VALID,0.902166,
2007-04-20, 02:09:00,VALID,917.939,VALID,0,VALID,100,VALID,0.0169808,VALID,19.2898,VALID,127,VALID,0.88244,
2007-04-20, 02:10:00,VALID,917.928,VALID,0,VALID,100,VALID,0.0169808,VALID,19.2928,VALID,129,VALID,1.03702,
2007-04-20, 02:11:00,VALID,917.911,VALID,0,VALID,100,VALID,0.0169808,VALID,19.316,VALID,128,VALID,1.03553,
2007-04-20, 02:12:00,VALID,917.898,VALID,0,VALID,100,VALID,0.0509425,VALID,19.3252,VALID,128,VALID,0.977471,
2007-04-20, 02:13:00,VALID,917.87,VALID,0,VALID,100,VALID,0.0679233,VALID,19.3419,VALID,134,VALID,0.907012,
2007-04-20, 02:14:00,VALID,917.842,VALID,0,VALID,100,VALID,0.0509425,VALID,19.3479,VALID,138,VALID,0.916606,
2007-04-20, 02:15:00,VALID,917.82,VALID,0,VALID,100,VALID,0.0339617,VALID,19.3674,VALID,137,VALID,1.00491,
2007-04-20, 02:16:00,VALID,917.801,VALID,0,VALID,100,VALID,0.0339617,VALID,19.3774,VALID,139,VALID,1.24128,
2007-04-20, 02:17:00,VALID,917.776,VALID,0,VALID,100,VALID,0,VALID,19.3966,VALID,129,VALID,1.29652,
2007-04-20, 02:18:00,VALID,917.753,VALID,0,VALID,100,VALID,0.0339617,VALID,19.4093,VALID,122,VALID,0.764436,
2007-04-20, 02:19:00,VALID,917.723,VALID,0,VALID,100,VALID,0,VALID,19.4131,VALID,136,VALID,1.36328,
2007-04-20, 02:20:00,VALID,917.713,VALID,0,VALID,100,VALID,-0.0169808,VALID,19.4193,VALID,148,VALID,0.880944,
2007-04-20, 02:21:00,VALID,917.695,VALID,0,VALID,100,VALID,0.0169808,VALID,19.4293,VALID,141,VALID,1.4802,
2007-04-20, 02:22:00,VALID,917.669,VALID,0,VALID,100,VALID,0,VALID,19.436,VALID,144,VALID,1.47972,
2007-04-20, 02:23:00,VALID,917.667,VALID,0,VALID,100,VALID,0,VALID,19.4425,VALID,141,VALID,1.56541,
2007-04-20, 02:24:00,VALID,917.661,VALID,0,VALID,100,VALID,0.0339617,VALID,19.4585,VALID,138,VALID,1.1772,
2007-04-20, 02:25:00,VALID,917.655,VALID,0,VALID,100,VALID,0.0169808,VALID,19.4423,VALID,131,VALID,1.35494,
2007-04-20, 02:26:00,VALID,917.652,VALID,0,VALID,100,VALID,0,VALID,19.4427,VALID,127,VALID,1.13672,
2007-04-20, 02:27:00,VALID,917.63,VALID,0,VALID,100,VALID,0.0169808,VALID,19.4225,VALID,130,VALID,1.42094,
2007-04-20, 02:28:00,VALID,917.609,VALID,0,VALID,100,VALID,0,VALID,19.4128,VALID,121,VALID,1.01829,
2007-04-20, 02:29:00,VALID,917.59,VALID,0,VALID,100,VALID,0.0169808,VALID,19.4033,VALID,118,VALID,1.05208,
2007-04-20, 02:30:00,VALID,917.578,VALID,0,VALID,100,VALID,0,VALID,19.3739,VALID,134,VALID,1.08873,
2007-04-20, 02:31:00,VALID,917.558,VALID,0,VALID,100,VALID,0.0339617,VALID,19.3709,VALID,128,VALID,0.864443,
2007-04-20, 02:32:00,VALID,917.523,VALID,0,VALID,100,VALID,0,VALID,19.3547,VALID,132,VALID,0.942835,
2007-04-20, 02:33:00,VALID,917.532,VALID,0,VALID,100,VALID,0,VALID,19.3517,VALID,145,VALID,1.11775,
2007-04-20, 02:34:00,VALID,917.511,VALID,0,VALID,100,VALID,-0.0169808,VALID,19.3359,VALID,143,VALID,1.63281,
2007-04-20, 02:35:00,VALID,917.494,VALID,0,VALID,100,VALID,0,VALID,19.326,VALID,150,VALID,1.79629,
2007-04-20, 02:36:00,VALID,917.478,VALID,0,VALID,100,VALID,-0.0169808,VALID,19.329,VALID,143,VALID,1.49423,
2007-04-20, 02:37:00,VALID,917.475,VALID,0,VALID,100,VALID,0,VALID,19.3454,VALID,149,VALID,1.29755,
2007-04-20, 02:38:00,VALID,917.459,VALID,0,VALID,100,VALID,0,VALID,19.3487,VALID,141,VALID,1.21615,
2007-04-20, 02:39:00,VALID,917.453,VALID,0,VALID,100,VALID,0,VALID,19.3345,VALID,145,VALID,1.2202,
2007-04-20, 02:40:00,VALID,917.438,VALID,0,VALID,100,VALID,0,VALID,19.3517,VALID,151,VALID,0.928089,
2007-04-20, 02:41:00,VALID,917.418,VALID,0,VALID,100,VALID,0.0169808,VALID,19.3552,VALID,154,VALID,0.93657,
2007-04-20, 02:42:00,VALID,917.402,VALID,0,VALID,100,VALID,-0.0169808,VALID,19.3519,VALID,156,VALID,1.05788,
2007-04-20, 02:43:00,VALID,917.382,VALID,0,VALID,100,VALID,0,VALID,19.3419,VALID,161,VALID,1.27381,
2007-04-20, 02:44:00,VALID,917.373,VALID,0,VALID,100,VALID,-0.0169808,VALID,19.3389,VALID,166,VALID,1.61026,
2007-04-20, 02:45:00,VALID,917.363,VALID,0,VALID,99.9702,VALID,-0.0509425,VALID,19.3616,VALID,170,VALID,1.0558,
2007-04-20, 02:46:00,VALID,917.353,VALID,0,VALID,99.8324,VALID,-0.0339617,VALID,19.3749,VALID,169,VALID,1.46911,
2007-04-20, 02:47:00,VALID,917.352,VALID,0,VALID,99.7637,VALID,-0.0339617,VALID,19.3749,VALID,168,VALID,1.09687,
2007-04-20, 02:48:00,VALID,917.33,VALID,0,VALID,99.7739,VALID,-0.0339617,VALID,19.3814,VALID,170,VALID,1.37612,
2007-04-20, 02:49:00,VALID,917.309,VALID,0,VALID,99.8718,VALID,-0.0339617,VALID,19.3846,VALID,173,VALID,1.69379,
2007-04-20, 02:50:00,VALID,917.291,VALID,0,VALID,99.9903,VALID,-0.0509425,VALID,19.4073,VALID,177,VALID,1.11399,
2007-04-20, 02:51:00,VALID,917.279,VALID,0,VALID,100,VALID,-0.0679233,VALID,19.4265,VALID,186,VALID,1.22493,
2007-04-20, 02:52:00,VALID,917.248,VALID,0,VALID,100,VALID,-0.0509425,VALID,19.4527,VALID,173,VALID,1.44295,
2007-04-20, 02:53:00,VALID,917.229,VALID,0,VALID,100,VALID,-0.0339617,VALID,19.4527,VALID,165,VALID,1.44289,
2007-04-20, 02:54:00,VALID,917.215,VALID,0,VALID,100,VALID,-0.0169808,VALID,19.4492,VALID,169,VALID,1.17283,
2007-04-20, 02:55:00,VALID,917.194,VALID,0,VALID,100,VALID,-0.0509425,VALID,19.4625,VALID,174,VALID,1.30352,
2007-04-20, 02:56:00,VALID,917.178,VALID,0,VALID,100,VALID,0,VALID,19.4722,VALID,170,VALID,1.88243,
2007-04-20, 02:57:00,VALID,917.171,VALID,0,VALID,100,VALID,-0.0679233,VALID,19.4819,VALID,178,VALID,0.90298,
2007-04-20, 02:58:00,VALID,917.16,VALID,0,VALID,100,VALID,-0.0339617,VALID,19.4752,VALID,170,VALID,1.27121,
2007-04-20, 02:59:00,VALID,917.142,VALID,0,VALID,100,VALID,-0.0169808,VALID,19.4652,VALID,173,VALID,1.04549,
2007-04-20, 03:00:00,VALID,917.147,VALID,0,VALID,100,VALID,-0.0339617,VALID,19.4719,VALID,175,VALID,1.21131,
2007-04-20, 03:01:00,VALID,917.132,VALID,0,VALID,100,VALID,-0.0169808,VALID,19.4749,VALID,173,VALID,1.92578,
2007-04-20, 03:02:00,VALID,917.134,VALID,0,VALID,100,VALID,-0.0339617,VALID,19.5109,VALID,181,VALID,1.35491,
2007-04-20, 03:03:00,VALID,917.121,VALID,0,VALID,100,VALID,0,VALID,19.5271,VALID,174,VALID,0.94093,
2007-04-20, 03:04:00,VALID,917.122,VALID,0,VALID,100,VALID,-0.0339617,VALID,19.5273,VALID,181,VALID,1.13207,
2007-04-20, 03:05:00,VALID,917.105,VALID,0,VALID,100,VALID,-0.0169808,VALID,19.5436,VALID,172,VALID,1.18211,
2007-04-20, 03:06:00,VALID,917.092,VALID,0,VALID,100,VALID,-0.0339617,VALID,19.5333,VALID,172,VALID,1.24896,
2007-04-20, 03:07:00,VALID,917.079,VALID,0,VALID,100,VALID,-0.0509425,VALID,19.5565,VALID,172,VALID,0.860102,
2007-04-20, 03:08:00,VALID,917.077,VALID,0,VALID,100,VALID,-0.0169808,VALID,19.5496,VALID,170,VALID,1.21633,
2007-04-20, 03:09:00,VALID,917.064,VALID,0,VALID,100,VALID,0,VALID,19.566,VALID,168,VALID,0.697493,
2007-04-20, 03:10:00,VALID,917.057,VALID,0,VALID,99.9481,VALID,-0.0169808,VALID,19.5725,VALID,176,VALID,0.926054,
2007-04-20, 03:11:00,VALID,917.055,VALID,0,VALID,99.8388,VALID,0,VALID,19.5693,VALID,154,VALID,1.08956,
2007-04-20, 03:12:00,VALID,917.056,VALID,0,VALID,99.7968,VALID,0,VALID,19.5853,VALID,158,VALID,1.06445,
2007-04-20, 03:13:00,VALID,917.057,VALID,0,VALID,99.6646,VALID,-0.0169808,VALID,19.589,VALID,155,VALID,1.59993,
2007-04-20, 03:14:00,VALID,917.049,VALID,0,VALID,99.5895,VALID,0,VALID,19.6017,VALID,168,VALID,1.10156,
2007-04-20, 03:15:00,VALID,917.053,VALID,0,VALID,99.5387,VALID,0,VALID,19.6304,VALID,161,VALID,1.26406,
2007-04-20, 03:16:00,VALID,917.043,VALID,0,VALID,99.4204,VALID,0,VALID,19.6309,VALID,155,VALID,1.65608,
2007-04-20, 03:17:00,VALID,917.032,VALID,0,VALID,99.3606,VALID,0,VALID,19.6297,VALID,154,VALID,1.7173,
2007-04-20, 03:18:00,VALID,917.034,VALID,0,VALID,99.3556,VALID,-0.0169808,VALID,19.6504,VALID,169,VALID,0.93316,
2007-04-20, 03:19:00,VALID,917.013,VALID,0,VALID,99.3873,VALID,-0.0169808,VALID,19.6531,VALID,155,VALID,1.39208,
2007-04-20, 03:20:00,VALID,917.003,VALID,0,VALID,99.428,VALID,-0.0169808,VALID,19.6404,VALID,166,VALID,1.82124,
2007-04-20, 03:21:00,VALID,916.995,VALID,0,VALID,99.4916,VALID,0,VALID,19.6344,VALID,161,VALID,1.68093,
2007-04-20, 03:22:00,VALID,916.982,VALID,0,VALID,99.6251,VALID,-0.0169808,VALID,19.6212,VALID,171,VALID,1.34184,
2007-04-20, 03:23:00,VALID,916.984,VALID,0,VALID,99.8019,VALID,-0.0169808,VALID,19.6017,VALID,165,VALID,0.875888,
2007-04-20, 03:24:00,VALID,916.976,VALID,0,VALID,99.9278,VALID,0,VALID,19.5725,VALID,167,VALID,1.24037,
2007-04-20, 03:25:00,VALID,916.963,VALID,0,VALID,100,VALID,0,VALID,19.5658,VALID,156,VALID,0.975446,
2007-04-20, 03:26:00,VALID,916.941,VALID,0,VALID,100,VALID,0,VALID,19.563,VALID,173,VALID,0.625186,
2007-04-20, 03:27:00,VALID,916.932,VALID,0,VALID,100,VALID,0.0169808,VALID,19.5531,VALID,167,VALID,1.04199,
2007-04-20, 03:28:00,VALID,916.917,VALID,0,VALID,100,VALID,-0.0339617,VALID,19.5533,VALID,155,VALID,0.93006,
2007-04-20, 03:29:00,VALID,916.894,VALID,0,VALID,100,VALID,0.101885,VALID,19.5451,VALID,165,VALID,0.791159,
2007-04-20, 03:30:00,VALID,916.871,VALID,0,VALID,100,VALID,0.0509425,VALID,19.5486,VALID,148,VALID,1.09335,
2007-04-20, 03:31:00,VALID,916.847,VALID,0,VALID,100,VALID,0.0509425,VALID,19.5653,VALID,156,VALID,1.2202,
2007-04-20, 03:32:00,VALID,916.831,VALID,0,VALID,100,VALID,0.0509425,VALID,19.5743,VALID,148,VALID,1.21726,
2007-04-20, 03:33:00,VALID,916.807,VALID,0,VALID,99.9916,VALID,0.0509425,VALID,19.584,VALID,146,VALID,1.26563,
2007-04-20, 03:34:00,VALID,916.799,VALID,0,VALID,99.8973,VALID,0.0849042,VALID,19.6037,VALID,139,VALID,1.32222,
2007-04-20, 03:35:00,VALID,916.778,VALID,0,VALID,99.7307,VALID,0.0849042,VALID,19.6232,VALID,149,VALID,1.51684,
2007-04-20, 03:36:00,VALID,916.768,VALID,0,VALID,99.6442,VALID,0.0509425,VALID,19.6491,VALID,137,VALID,1.04901,
2007-04-20, 03:37:00,VALID,916.74,VALID,0,VALID,99.5692,VALID,0.0509425,VALID,19.6621,VALID,145,VALID,1.22008,
2007-04-20, 03:38:00,VALID,916.716,VALID,0,VALID,99.4725,VALID,0.0679233,VALID,19.6816,VALID,147,VALID,0.960751,
2007-04-20, 03:39:00,VALID,916.688,VALID,0,VALID,99.381,VALID,0.0849042,VALID,19.6948,VALID,147,VALID,1.60574,